EN

Hourly Weather Bronytsya

Today, 20 April, Tuesday

Time Temperature Precipitation Wind Pressure Humidity
00:00 +7°C° 0 mm 2 mps 748 mmHg 83%
01:00 +6°C° 0 mm 2 mps 747 mmHg 86%
02:00 +5°C° 0 mm 2 mps 747 mmHg 89%
03:00 +5°C° 0 mm 2 mps 747 mmHg 90%
04:00 +4°C° 0 mm 2 mps 747 mmHg 92%
05:00 +4°C° 0 mm 2 mps 746 mmHg 93%
06:00 +5°C° 0 mm 2 mps 746 mmHg 89%
07:00 +6°C° 0 mm 2 mps 746 mmHg 84%
08:00 +8°C° 0 mm 3 mps 746 mmHg 80%
09:00 +9°C° 0.2 mm 3 mps 746 mmHg 74%
10:00 +10°C° 0.2 mm 3 mps 746 mmHg 68%
11:00 +11°C° 0.2 mm 3 mps 746 mmHg 63%
12:00 +11°C° 0.2 mm 3 mps 745 mmHg 60%
13:00 +12°C° 0.2 mm 3 mps 745 mmHg 58%
14:00 +12°C° 0.2 mm 3 mps 745 mmHg 56%
15:00 +12°C° 0 mm 3 mps 745 mmHg 58%
16:00 +11°C° 0 mm 3 mps 744 mmHg 59%
17:00 +11°C° 0 mm 3 mps 744 mmHg 61%
18:00 +10°C° 0 mm 2 mps 744 mmHg 67%
19:00 +10°C° 0 mm 1 mps 744 mmHg 72%
20:00 +8°C° 0 mm 1 mps 744 mmHg 78%
21:00 +8°C° 0 mm 1 mps 744 mmHg 80%
22:00 +6°C° 0 mm 0 mps 744 mmHg 82%
23:00 +6°C° 0 mm 0 mps 744 mmHg 83%

Tomorrow, 21 April, Wednesday

Time Temperature Precipitation Wind Pressure Humidity
00:00 +7°C° 0 mm 1 mps 744 mmHg 84%
01:00 +7°C° 0 mm 1 mps 744 mmHg 86%
02:00 +6°C° 0 mm 2 mps 744 mmHg 87%
03:00 +5°C° 0 mm 2 mps 744 mmHg 89%
04:00 +5°C° 0 mm 2 mps 743 mmHg 91%
05:00 +5°C° 0 mm 2 mps 743 mmHg 93%
06:00 +6°C° 0.1 mm 2 mps 743 mmHg 88%
07:00 +7°C° 0.1 mm 2 mps 743 mmHg 84%
08:00 +9°C° 0.1 mm 2 mps 744 mmHg 80%
09:00 +10°C° 0.4 mm 2 mps 743 mmHg 73%
10:00 +11°C° 0.4 mm 3 mps 743 mmHg 65%
11:00 +13°C° 0.4 mm 3 mps 743 mmHg 58%
12:00 +13°C° 0.3 mm 3 mps 743 mmHg 55%
13:00 +14°C° 0.3 mm 3 mps 743 mmHg 53%
14:00 +14°C° 0.3 mm 3 mps 743 mmHg 50%
15:00 +14°C° 0.4 mm 3 mps 743 mmHg 54%
16:00 +14°C° 0.4 mm 3 mps 743 mmHg 59%
17:00 +13°C° 0.4 mm 3 mps 743 mmHg 63%
18:00 +12°C° 0.4 mm 3 mps 743 mmHg 69%
19:00 +12°C° 0.4 mm 2 mps 743 mmHg 76%
20:00 +9°C° 0.4 mm 2 mps 743 mmHg 82%
21:00 +9°C° 0.1 mm 2 mps 743 mmHg 85%
22:00 +8°C° 0.1 mm 2 mps 743 mmHg 88%
23:00 +7°C° 0.1 mm 2 mps 743 mmHg 90%

Day after tomorrow, 22 April, Thursday

Time Temperature Precipitation Wind Pressure Humidity
00:00 +7°C° 0 mm 3 mps 743 mmHg 91%
01:00 +7°C° 0 mm 3 mps 743 mmHg 91%
02:00 +5°C° 0 mm 3 mps 743 mmHg 91%
03:00 +5°C° 0 mm 3 mps 743 mmHg 92%
04:00 +5°C° 0 mm 3 mps 744 mmHg 92%
05:00 +4°C° 0 mm 3 mps 744 mmHg 93%
06:00 +7°C° 0 mm 3 mps 744 mmHg 86%
07:00 +8°C° 0 mm 3 mps 744 mmHg 80%
08:00 +8°C° 0 mm 4 mps 744 mmHg 74%
09:00 +11°C° 0 mm 4 mps 745 mmHg 65%
10:00 +13°C° 0 mm 4 mps 745 mmHg 57%
11:00 +14°C° 0 mm 4 mps 745 mmHg 48%
12:00 +14°C° 0 mm 4 mps 744 mmHg 47%
13:00 +15°C° 0 mm 4 mps 744 mmHg 46%
14:00 +15°C° 0 mm 4 mps 744 mmHg 45%
15:00 +13°C° 1.4 mm 4 mps 744 mmHg 60%
16:00 +10°C° 1.4 mm 4 mps 745 mmHg 74%
17:00 +6°C° 1.4 mm 4 mps 745 mmHg 89%
18:00 +6°C° 0.2 mm 4 mps 745 mmHg 88%
19:00 +7°C° 0.2 mm 3 mps 746 mmHg 87%
20:00 +6°C° 0.2 mm 2 mps 746 mmHg 87%
21:00 +6°C° 0 mm 2 mps 746 mmHg 86%
22:00 +5°C° 0 mm 2 mps 746 mmHg 85%
23:00 +5°C° 0 mm 2 mps 746 mmHg 84%

23 April, Friday

Time Temperature Precipitation Wind Pressure Humidity
00:00 +5°C° 0 mm 2 mps 746 mmHg 83%
01:00 +5°C° 0 mm 2 mps 746 mmHg 81%
02:00 +5°C° 0 mm 2 mps 746 mmHg 80%
03:00 +4°C° 0 mm 2 mps 746 mmHg 81%
04:00 +4°C° 0 mm 2 mps 746 mmHg 83%
05:00 +2°C° 0 mm 3 mps 747 mmHg 84%
06:00 +3°C° 0 mm 3 mps 747 mmHg 80%
07:00 +4°C° 0 mm 3 mps 747 mmHg 77%
08:00 +4°C° 0 mm 4 mps 747 mmHg 73%
09:00 +5°C° 0.1 mm 5 mps 747 mmHg 66%
10:00 +5°C° 0.1 mm 6 mps 747 mmHg 59%
11:00 +6°C° 0.1 mm 7 mps 747 mmHg 52%
12:00 +6°C° 0.2 mm 7 mps 747 mmHg 52%
13:00 +6°C° 0.2 mm 7 mps 747 mmHg 52%
14:00 +6°C° 0.2 mm 7 mps 747 mmHg 51%
15:00 +6°C° 0.1 mm 7 mps 748 mmHg 53%
16:00 +7°C° 0.1 mm 6 mps 748 mmHg 54%
17:00 +7°C° 0.1 mm 6 mps 748 mmHg 56%
18:00 +4°C° 0.1 mm 6 mps 748 mmHg 65%
19:00 +3°C° 0.1 mm 5 mps 748 mmHg 74%
20:00 +3°C° 0.1 mm 4 mps 749 mmHg 83%
21:00 +1°C° 0.3 mm 5 mps 749 mmHg 83%
22:00 0°C° 0.3 mm 5 mps 749 mmHg 83%
23:00 -1°C° 0.3 mm 5 mps 749 mmHg 83%

24 April, Saturday

Time Temperature Precipitation Wind Pressure Humidity
00:00 -2°C° 0 mm 5 mps 750 mmHg 82%
01:00 -2°C° 0 mm 5 mps 750 mmHg 81%
02:00 -4°C° 0 mm 5 mps 750 mmHg 81%
03:00 -4°C° 0 mm 5 mps 750 mmHg 82%
04:00 -3°C° 0 mm 4 mps 750 mmHg 83%
05:00 -3°C° 0 mm 4 mps 751 mmHg 84%
06:00 -2°C° 0 mm 4 mps 751 mmHg 75%
07:00 0°C° 0 mm 4 mps 751 mmHg 66%
08:00 +1°C° 0 mm 4 mps 751 mmHg 58%
09:00 +3°C° 0 mm 5 mps 751 mmHg 54%
10:00 +5°C° 0 mm 5 mps 750 mmHg 49%
11:00 +6°C° 0 mm 5 mps 750 mmHg 45%
12:00 +7°C° 0.2 mm 5 mps 750 mmHg 47%
13:00 +7°C° 0.2 mm 5 mps 750 mmHg 49%
14:00 +7°C° 0.2 mm 5 mps 750 mmHg 51%
15:00 +7°C° 0.1 mm 5 mps 749 mmHg 50%
16:00 +7°C° 0.1 mm 4 mps 749 mmHg 49%
17:00 +7°C° 0.1 mm 4 mps 749 mmHg 48%
18:00 +7°C° 0.1 mm 3 mps 749 mmHg 59%
19:00 +5°C° 0.1 mm 3 mps 749 mmHg 69%
20:00 +3°C° 0.1 mm 3 mps 749 mmHg 80%
21:00 +3°C° 0.8 mm 3 mps 749 mmHg 85%
22:00 +2°C° 0.8 mm 3 mps 749 mmHg 91%
23:00 +2°C° 0.8 mm 2 mps 749 mmHg 96%

25 April, Sunday

Time Temperature Precipitation Wind Pressure Humidity
00:00 +1°C° 0.2 mm 3 mps 749 mmHg 96%
01:00 +1°C° 0.2 mm 3 mps 749 mmHg 96%
02:00 0°C° 0.2 mm 3 mps 749 mmHg 95%
03:00 -1°C° 0 mm 3 mps 750 mmHg 94%
04:00 -2°C° 0 mm 3 mps 750 mmHg 92%
05:00 -2°C° 0 mm 3 mps 750 mmHg 91%
06:00 -1°C° 0 mm 3 mps 751 mmHg 84%
07:00 -1°C° 0 mm 4 mps 751 mmHg 76%
08:00 +1°C° 0 mm 4 mps 751 mmHg 68%
09:00 +2°C° 0 mm 5 mps 751 mmHg 60%
10:00 +3°C° 0 mm 5 mps 751 mmHg 52%
11:00 +5°C° 0 mm 6 mps 751 mmHg 43%
12:00 +5°C° 0 mm 6 mps 751 mmHg 43%
13:00 +6°C° 0 mm 7 mps 751 mmHg 42%
14:00 +6°C° 0 mm 7 mps 751 mmHg 42%
15:00 +6°C° 0.1 mm 7 mps 751 mmHg 46%
16:00 +7°C° 0.1 mm 6 mps 751 mmHg 50%
17:00 +5°C° 0.1 mm 6 mps 751 mmHg 54%
18:00 +5°C° 0.1 mm 5 mps 751 mmHg 59%
19:00 +3°C° 0.1 mm 5 mps 751 mmHg 64%
20:00 +3°C° 0.1 mm 4 mps 751 mmHg 69%
21:00 +1°C° 0 mm 4 mps 752 mmHg 72%
22:00 0°C° 0 mm 4 mps 752 mmHg 75%
23:00 -1°C° 0 mm 4 mps 752 mmHg 77%
Show more

We Need Your Consent

Meteoprog and our Service Providers may store and access personal data such as cookies, device identifiers or other similar technologies on your device and process such data to personalise content and ads, as well as provide social media features and to analyse the traffic.

  • Store and/or access information on your device

    Cookies, device identifiers or other information can be stored or accessed on your device for the purposes indicated above.

  • Personalised ads and content, ad and content measurement, audience insights, and products development

    Ads and content can be personalised based on a profile. More data can be added to better personalise ads and content. Ad and content performance can be measured. Insights about the audience who saw the ads and content can be derived. Such data can be used to develop or improve user’s experience, systems and software.

By clicking ‘I Agree’ you will allow the use of indicated cookies, device identifiers, web beacons or other similar technologies. Your settings can be changed in the browser on your device.

For certain purposes, legitimate interests may be relied on, rather than consent. You can read more about this in our Privacy and Cookie Policy.